Date,TemperatureHighF,TemperatureAvgF,TemperatureLowF,DewpointHighF,DewpointAvgF,DewpointLowF,HumidityHigh,HumidityAvg,HumidityLow,PressureMaxIn,PressureMinIn,WindSpeedMaxMPH,WindSpeedAvgMPH,GustSpeedMaxMPH,PrecipitationSumIn
2013-1-1,41.8,35.3,28.6,32.3,28.4,24.2,85,76,66,30.02,29.92,6,1,6,0.10
2013-1-2,35.7,32.2,25.8,29.8,21.1,14.6,79,64,50,30.24,30.00,8,1,8,0.01
2013-1-3,37.8,28.1,19.6,22.2,19.4,15.2,89,71,52,30.25,30.15,6,1,6,0.00
2013-1-4,42.0,35.1,30.6,25.5,22.4,20.4,66,60,50,30.21,30.11,8,2,8,0.00
2013-1-5,43.4,35.7,29.2,28.2,23.9,20.3,80,63,46,30.38,30.15,10,1,10,0.00
2013-1-6,48.4,39.8,32.7,31.6,29.3,27.1,84,67,49,30.18,30.02,8,1,8,0.00
2013-1-7,42.5,37.0,23.0,33.0,27.4,20.0,89,69,54,30.44,30.14,8,1,8,0.00
2013-1-8,51.6,33.9,22.6,35.2,27.2,20.1,93,78,50,30.42,30.35,5,1,5,0.00
2013-1-9,51.6,37.4,24.9,44.0,31.6,22.7,95,81,51,30.38,30.24,9,1,9,0.00
2013-1-10,53.2,46.0,38.9,34.3,31.4,29.5,77,57,42,30.60,30.38,8,2,8,0.00
2013-1-11,45.3,38.6,33.3,39.8,34.5,29.0,96,85,66,30.49,30.09,12,1,12,0.08
2013-1-12,53.9,44.0,40.5,48.8,42.1,39.4,97,93,82,30.17,30.09,4,0,4,0.01
2013-1-13,56.9,48.1,41.0,56.2,47.2,39.7,98,97,95,30.11,29.93,6,1,6,0.00
2013-1-14,57.4,53.9,46.7,56.8,50.2,35.9,98,88,64,30.27,29.93,10,2,10,0.00
2013-1-15,39.1,38.3,36.4,36.7,35.1,34.1,92,88,84,30.27,30.22,1,0,4,0.11
2013-1-16,38.8,36.2,30.2,35.6,34.0,24.2,92,92,85,30.27,29.93,4,0,4,0.11
2013-1-17,42.7,37.7,35.4,34.3,32.1,28.8,92,81,62,30.13,29.96,7,1,7,0.00
2013-1-18,37.2,33.2,25.7,28.8,20.7,13.4,76,61,40,30.49,30.06,11,2,11,0.00
2013-1-19,56.6,39.0,26.8,32.9,27.9,20.9,87,67,40,30.39,29.93,13,4,13,0.00
2013-1-20,56.9,41.4,30.7,35.4,22.4,9.9,83,51,22,30.08,29.83,10,2,10,0.00
2013-1-21,44.2,32.2,26.6,24.2,18.0,12.4,67,56,39,30.09,29.80,10,2,10,0.00
2013-1-22,26.4,18.7,14.9,12.5,0.8,-2.6,56,45,34,30.30,29.96,10,3,10,0.00
2013-1-23,25.0,18.9,10.6,11.6,3.1,0.3,70,51,36,30.35,30.14,8,1,8,0.00
2013-1-24,26.4,20.0,16.3,14.7,9.2,-0.3,87,64,41,30.53,30.09,12,2,12,0.04
2013-1-25,21.3,18.4,16.2,16.7,8.3,-0.4,87,66,46,30.53,30.07,8,1,8,0.00
2013-1-26,33.5,25.3,18.8,26.3,20.9,15.5,96,83,68,30.44,30.08,5,1,5,0.07
2013-1-27,37.6,28.5,24.2,23.0,19.1,16.1,85,68,52,30.60,30.44,7,1,7,0.02
2013-1-28,38.7,33.2,27.2,37.4,30.4,22.7,95,89,78,30.47,30.05,9,1,9,0.16
2013-1-29,70.3,54.5,36.9,57.2,49.0,35.6,98,83,60,30.11,29.94,10,1,10,0.00
2013-1-30,68.7,53.6,43.1,62.3,51.8,41.2,97,94,78,29.94,29.21,18,1,18,3.39
2013-1-31,54.9,43.1,28.8,54.1,33.3,14.3,97,70,44,29.89,29.15,14,2,14,0.15
2013-2-1,29.8,24.4,16.4,23.6,12.6,4.7,81,61,45,30.40,29.81,13,3,13,0.01
2013-2-2,28.1,20.5,11.7,23.4,13.0,4.9,87,73,58,30.39,30.01,13,2,13,0.00
2013-2-3,33.5,28.0,23.2,29.0,24.0,17.6,92,85,64,30.02,29.82,12,2,12,0.01
2013-2-4,37.7,30.0,24.2,22.6,17.1,12.8,71,59,47,30.09,29.88,12,3,12,0.00
2013-2-5,38.3,33.2,29.0,30.8,26.9,21.7,89,78,71,29.93,29.84,4,0,4,0.00
2013-2-6,42.6,36.0,27.5,33.0,28.4,21.4,93,75,58,30.34,29.93,12,2,12,0.00
2013-2-7,39.6,31.6,23.5,28.8,24.2,19.9,89,74,56,30.43,30.20,7,1,7,0.00
2013-2-8,40.6,35.1,31.2,36.3,30.4,23.4,92,83,65,30.20,29.77,15,3,15,0.15
2013-2-9,40.9,33.4,26.0,23.4,19.5,14.5,69,57,39,30.40,29.93,16,4,16,0.00
2013-2-10,44.6,32.9,19.4,24.7,19.2,15.1,90,60,36,30.47,30.21,14,3,14,0.00
2013-2-11,56.1,43.5,34.3,50.4,37.4,24.7,95,82,36,30.22,29.69,12,3,12,0.13
2013-2-12,56.4,46.4,33.5,33.1,29.2,25.8,78,52,35,29.98,29.82,12,2,12,0.00
2013-2-13,42.7,33.6,26.2,32.8,28.4,23.1,94,82,62,29.94,29.67,6,1,6,0.09
2013-2-14,50.4,37.9,27.9,34.2,30.4,25.2,95,76,48,30.01,29.78,7,1,7,0.06
2013-2-15,57.0,39.2,27.5,38.5,31.7,24.9,94,78,43,30.03,29.90,8,1,8,0.11
2013-2-16,38.0,33.4,28.3,33.2,26.1,16.6,95,75,53,30.00,29.86,10,2,10,0.00
2013-2-17,31.0,25.9,22.3,17.7,12.7,6.9,69,57,43,30.21,29.85,14,4,14,0.00
2013-2-18,44.6,29.5,18.4,20.5,12.7,7.7,75,51,30,30.39,30.13,12,2,12,0.00
2013-2-19,46.2,37.1,26.8,39.8,28.6,19.8,87,72,56,30.14,29.69,14,3,14,0.08
2013-2-20,37.1,30.7,23.2,23.8,15.6,9.1,63,53,43,30.18,29.84,12,4,12,0.00
2013-2-21,38.5,29.2,22.7,18.9,15.1,10.1,66,56,43,30.33,30.14,12,3,12,0.00
2013-2-22,31.5,29.4,26.7,28.3,22.9,16.9,90,77,64,30.38,30.20,9,2,9,0.03
2013-2-23,46.3,37.2,30.9,42.0,34.7,28.3,95,91,85,30.21,29.82,4,1,4,0.00
2013-2-24,50.6,40.2,30.4,38.1,29.9,18.8,94,69,41,30.13,29.80,14,3,14,0.00
2013-2-25,46.7,34.9,26.1,26.0,22.4,19.1,83,61,42,30.22,30.11,6,1,6,0.00
2013-2-26,40.3,33.0,24.3,39.2,30.1,21.0,96,89,75,30.21,29.62,15,2,15,1.05
2013-2-27,56.6,44.8,38.9,43.3,37.4,33.4,96,77,48,29.69,29.55,9,2,9,0.04
2013-2-28,45.1,40.7,37.5,36.8,30.8,27.6,89,68,55,29.73,29.63,10,2,10,0.17
2013-3-1,44.1,38.6,33.0,30.6,28.0,23.0,72,66,55,29.90,29.73,9,2,9,0.00
2013-3-2,35.0,31.7,28.8,25.6,22.7,19.3,83,69,59,29.91,29.83,9,2,7,0.00
2013-3-3,41.4,32.7,28.4,21.7,19.9,17.6,72,60,43,29.93,29.81,9,3,9,0.00
2013-3-4,28.4,27.7,27.1,17.8,17.3,16.8,65,64,64,29.94,29.92,8,3,8,0.00
2013-3-5,50.7,44.4,27.1,30.2,22.4,16.9,88,43,31,30.01,29.80,10,3,10,0.00
2013-3-6,38.0,34.8,32.3,34.2,32.1,30.1,94,90,79,30.02,29.65,13,3,13,0.71
2013-3-7,47.6,40.5,36.2,31.4,29.5,27.0,79,65,50,30.18,30.02,12,3,12,0.18
2013-3-8,47.4,40.1,35.0,30.8,28.1,25.8,74,63,51,30.30,30.16,16,4,16,0.00
2013-3-9,59.1,42.6,30.0,31.3,27.4,23.8,84,58,27,30.37,30.25,8,2,8,0.00
2013-3-10,64.7,45.6,26.0,34.3,27.8,22.9,92,56,28,30.31,30.18,13,3,13,0.00
2013-3-11,57.5,48.9,39.4,49.4,40.6,28.3,91,74,44,30.22,29.87,14,3,14,0.00
2013-3-12,57.1,51.7,40.2,52.5,43.6,29.0,93,75,56,29.96,29.72,11,3,11,0.01
2013-3-13,49.1,40.2,31.6,30.9,26.0,19.3,79,58,37,30.08,29.91,10,3,10,0.00
2013-3-14,45.2,36.5,30.0,21.6,18.8,16.0,65,49,35,30.15,30.04,14,4,14,0.00
2013-3-15,60.5,44.7,27.4,36.9,27.1,19.6,80,52,35,30.10,29.77,13,3,13,0.00
2013-3-16,57.2,46.7,37.2,42.9,36.3,33.3,86,68,54,29.91,29.62,7,2,7,0.00
2013-3-17,38.7,36.1,31.2,34.3,28.4,24.1,92,74,57,30.26,29.90,7,2,7,0.00
2013-3-18,33.3,32.6,30.5,31.9,30.7,27.6,95,92,86,30.28,29.90,5,1,5,0.41
2013-3-19,61.3,43.6,33.0,41.4,28.4,12.0,97,63,22,29.91,29.71,14,2,14,0.49
2013-3-20,53.0,42.5,32.7,28.0,18.2,13.3,73,39,25,29.99,29.75,12,3,12,0.49
2013-3-21,35.7,31.6,27.2,27.7,15.8,9.8,73,52,38,29.90,29.77,9,3,9,0.49
2013-3-22,47.0,34.9,25.7,22.7,17.9,12.6,70,51,35,30.01,29.88,10,2,10,0.49
2013-3-23,54.4,38.7,22.8,27.4,22.9,18.7,85,56,32,30.04,29.91,9,2,9,0.49
2013-3-24,41.6,34.4,27.6,31.0,25.3,21.3,93,71,50,30.00,29.65,6,1,6,0.49
2013-3-25,39.5,34.2,31.7,35.4,32.0,30.2,100,92,83,29.71,29.52,4,1,4,0.88
2013-3-26,50.3,40.4,32.9,35.7,31.1,27.6,94,72,44,30.01,29.71,10,3,10,1.02
2013-3-27,48.5,43.4,35.7,34.4,29.8,27.4,95,59,49,30.13,30.04,11,2,11,0.01
2013-3-28,47.5,41.2,36.6,33.1,30.0,27.1,72,64,54,30.24,30.08,12,3,12,0.00
2013-3-29,55.5,45.8,36.7,35.6,31.1,27.3,78,58,37,30.26,30.14,10,2,10,0.00
2013-3-30,61.2,44.7,30.7,33.3,28.6,24.5,83,58,26,30.23,30.09,8,1,8,0.00
2013-3-31,48.7,41.7,33.9,46.4,38.0,28.4,94,87,73,30.10,29.74,4,0,4,0.08
2013-4-1,63.4,46.5,37.4,47.5,35.7,18.8,97,68,43,29.99,29.75,12,2,12,0.01
2013-4-2,49.2,40.2,33.8,20.5,17.1,13.8,54,40,28,30.17,29.99,13,2,13,0.00
2013-4-3,52.2,37.8,25.3,22.9,18.7,12.9,78,49,25,30.39,30.17,13,3,13,0.00
2013-4-4,49.2,37.7,23.7,32.8,17.5,12.5,83,46,29,30.40,30.06,12,3,12,0.01
2013-4-5,66.4,49.1,36.2,37.1,31.5,20.6,92,57,27,30.07,29.82,10,3,10,0.02
2013-4-6,57.2,45.2,33.7,28.2,23.6,19.7,64,44,25,30.31,30.06,8,2,8,0.00
2013-4-7,69.9,53.9,39.7,45.8,36.5,25.1,65,53,39,30.24,29.94,20,5,20,0.00
2013-4-8,82.4,62.7,47.1,52.3,46.0,41.8,83,59,31,30.06,29.91,12,2,12,0.00
2013-4-9,86.4,72.0,55.4,60.5,54.3,48.2,81,56,36,30.06,29.88,11,2,11,0.00
2013-4-10,93.5,74.2,56.2,62.8,57.2,50.7,83,59,33,29.95,29.74,12,2,12,0.00
2013-4-11,86.7,71.1,54.9,63.3,57.3,51.4,91,64,39,29.85,29.68,14,2,14,0.00
2013-4-12,73.0,58.0,52.1,65.2,54.8,47.0,97,89,74,29.77,29.53,9,2,9,0.37
2013-4-13,71.2,57.7,43.9,47.0,38.4,29.9,83,51,32,29.95,29.76,9,2,9,0.00
2013-4-14,66.4,52.6,38.4,44.0,38.3,32.2,85,61,38,30.14,29.95,9,1,9,0.00
2013-4-15,64.9,57.5,52.8,53.1,48.2,43.3,80,72,60,30.25,30.10,8,2,8,0.00
2013-4-16,75.8,62.7,54.3,62.2,55.3,49.0,89,78,60,30.27,30.08,15,5,15,0.00
2013-4-17,71.6,64.3,55.7,63.5,58.9,54.3,97,83,68,30.20,30.10,8,2,8,0.17
2013-4-18,77.5,65.4,59.2,65.7,58.7,55.8,95,80,58,30.20,29.95,13,2,13,0.02
2013-4-19,65.3,64.5,63.5,60.3,59.9,58.4,86,85,81,29.95,29.57,12,1,12,0.00
2013-4-20,64.5,57.2,44.7,60.2,41.2,26.6,86,58,33,30.34,29.75,14,2,14,0.00
2013-4-21,54.9,44.4,32.7,32.5,27.5,22.6,77,53,35,30.59,30.34,9,2,9,0.00
2013-4-22,58.0,44.7,31.2,38.9,34.3,28.9,94,69,44,30.57,30.38,12,2,12,0.00
2013-4-23,43.4,42.5,40.4,37.4,36.7,34.0,81,80,74,30.41,30.11,4,0,4,0.00
2013-4-24,77.0,58.0,42.7,60.9,48.6,37.4,97,73,49,30.12,29.74,22,4,22,0.04
2013-4-25,66.5,53.3,42.6,45.2,35.6,31.7,72,53,30,30.30,29.95,16,3,16,0.00
2013-4-26,65.1,53.1,41.2,43.0,37.3,32.1,84,57,37,30.46,30.29,7,2,7,0.00
2013-4-27,73.0,55.2,36.9,46.4,41.1,34.3,94,63,34,30.41,30.25,7,1,7,0.00
2013-4-28,58.7,50.5,40.0,50.4,45.1,37.6,95,83,49,30.27,30.12,12,1,12,0.15
2013-4-29,58.9,54.6,51.7,57.8,52.9,49.4,96,94,84,30.13,30.02,6,1,6,0.10
2013-4-30,58.5,55.5,53.4,56.6,53.9,52.2,97,94,88,30.28,30.08,7,1,7,0.03
2013-5-1,72.7,57.4,48.7,52.4,45.2,38.2,95,70,30,30.41,30.28,9,1,9,0.00
2013-5-2,71.5,54.6,39.0,52.3,45.2,37.1,97,73,41,30.42,30.30,7,2,7,0.00
2013-5-3,71.2,52.6,40.9,49.8,43.3,39.3,95,74,40,30.38,30.26,11,2,11,0.00
2013-5-4,70.7,54.5,39.4,48.7,43.6,36.9,94,69,42,30.33,30.15,9,2,9,0.00
2013-5-5,65.2,51.2,38.6,45.9,41.6,36.2,94,72,46,30.24,30.12,9,2,9,0.00
2013-5-6,59.0,51.9,41.2,56.9,49.2,38.8,95,90,85,30.18,30.04,7,2,7,0.02
2013-5-7,61.3,58.7,57.3,60.4,57.7,56.1,97,96,94,30.05,29.91,8,3,8,1.14
2013-5-8,68.7,58.0,52.1,59.5,55.1,51.0,98,91,66,29.99,29.91,6,1,6,0.17
2013-5-9,77.4,59.9,50.1,62.1,53.7,49.0,96,82,53,29.99,29.90,6,1,6,0.00
2013-5-10,86.0,66.5,50.6,65.2,57.7,49.2,97,77,44,30.00,29.83,9,2,9,0.69
2013-5-11,77.2,66.5,60.4,68.0,61.4,53.3,100,85,63,29.87,29.69,6,2,6,0.03
2013-5-12,63.4,57.6,49.2,53.3,39.3,29.1,75,52,34,30.03,29.74,12,3,12,0.00
2013-5-13,61.1,50.4,40.7,34.7,31.4,26.6,79,50,30,30.17,30.01,10,2,10,0.00
2013-5-14,66.3,50.3,32.8,45.2,36.7,30.3,93,63,35,30.22,30.02,6,1,6,0.00
2013-5-15,86.1,65.5,47.7,68.2,54.6,43.6,89,69,45,30.03,29.66,12,2,12,0.00
2013-5-16,80.5,74.5,66.1,64.9,59.3,54.5,78,60,45,29.92,29.74,8,2,8,0.00
2013-5-17,84.6,71.3,59.4,63.5,57.9,49.9,89,65,42,30.11,29.91,8,1,8,0.00
2013-5-18,66.3,61.4,58.0,58.8,56.5,52.6,95,85,63,30.21,30.09,5,1,5,0.03
2013-5-19,71.2,62.7,57.6,66.0,60.8,56.5,98,94,83,30.19,30.07,5,1,5,0.01
2013-5-20,82.1,70.9,63.8,71.2,66.3,62.6,97,86,66,30.09,29.95,9,2,9,0.03
2013-5-21,88.0,74.1,63.8,75.0,68.7,62.0,97,84,60,29.98,29.83,9,2,9,0.00
2013-5-22,92.0,74.2,65.1,76.2,68.3,63.9,98,84,49,29.90,29.79,8,2,8,0.76
2013-5-23,80.0,66.3,62.3,70.2,64.2,61.4,97,94,70,29.88,29.73,10,1,10,1.47
2013-5-24,62.3,55.4,45.6,61.4,48.0,34.0,97,78,57,30.18,29.73,10,3,10,0.01
2013-5-25,65.6,53.0,41.2,43.2,37.4,32.3,75,57,38,30.21,30.10,13,3,13,0.00
2013-5-26,73.8,59.0,48.5,45.4,40.1,35.7,82,51,29,30.22,30.11,9,2,9,0.00
2013-5-27,67.7,57.0,43.1,52.3,46.2,40.4,93,70,44,30.28,30.17,7,1,7,0.00
2013-5-28,80.4,65.3,53.3,70.1,59.4,50.4,96,82,65,30.19,30.03,7,1,7,0.07
2013-5-29,91.8,75.1,61.3,71.8,66.2,59.9,97,76,44,30.10,30.04,7,1,7,0.00
2013-5-30,92.8,77.5,63.7,74.3,67.9,62.2,97,75,46,30.16,30.07,7,1,7,0.00
2013-5-31,92.0,77.3,62.9,70.5,66.1,61.1,97,71,43,30.12,29.98,14,2,14,0.00
2013-6-1,92.0,78.1,63.2,73.9,67.8,61.3,96,73,50,30.01,29.88,10,2,10,0.00
2013-6-2,80.3,71.9,67.3,72.0,67.3,63.3,97,86,71,29.88,29.81,12,2,12,1.37
2013-6-3,78.6,70.5,64.8,69.4,64.9,56.2,98,83,65,29.96,29.82,8,1,8,0.32
2013-6-4,76.8,64.3,55.7,56.6,51.0,44.4,88,64,41,30.12,29.95,8,2,8,0.00
2013-6-5,81.4,65.7,51.2,62.3,56.0,49.2,96,74,48,30.17,30.02,9,1,9,0.00
2013-6-6,68.5,64.1,60.9,64.4,59.3,51.1,97,85,69,30.05,29.84,7,1,7,0.83
2013-6-7,68.8,65.3,63.3,68.1,64.4,62.4,98,97,94,29.84,29.61,5,1,5,0.28
2013-6-8,65.8,63.3,62.8,64.3,59.4,58.5,95,87,85,30.08,29.72,4,0,4,0.00
2013-6-9,78.3,69.6,62.8,70.4,64.0,58.5,97,83,69,30.18,30.06,5,1,5,0.00
2013-6-10,68.8,67.8,67.3,67.5,66.9,66.4,97,97,94,30.08,29.76,4,0,4,0.39
2013-6-11,83.2,72.8,65.5,70.0,66.5,64.1,98,82,59,29.83,29.77,8,1,8,0.00
2013-6-12,90.6,77.1,66.0,72.5,68.0,62.6,96,75,52,29.85,29.75,7,1,7,0.05
2013-6-13,85.7,70.9,66.6,73.1,66.2,56.9,97,86,62,29.78,29.46,10,2,10,1.54
2013-6-14,78.0,68.7,62.4,60.4,56.5,54.4,83,66,46,29.97,29.60,8,2,8,0.00
2013-6-15,81.9,70.8,60.9,63.5,57.9,53.9,85,65,41,30.07,29.97,5,1,5,0.00
2013-6-16,83.4,71.5,59.7,68.8,62.9,55.9,91,75,57,30.01,29.87,10,1,10,0.00
2013-6-17,88.9,75.7,66.5,74.0,67.5,62.3,91,77,53,29.94,29.85,8,1,8,0.03
2013-6-18,72.1,69.5,64.9,70.5,67.7,63.6,96,94,88,29.89,29.78,5,0,5,0.99
2013-6-19,76.6,67.6,62.7,65.4,63.2,60.5,97,87,63,30.14,29.88,5,1,5,0.06
2013-6-20,80.4,68.9,59.2,66.9,62.6,57.8,98,82,59,30.25,30.13,10,1,10,0.00
2013-6-21,85.5,71.1,57.3,65.3,59.9,54.6,94,70,47,30.28,30.20,6,1,6,0.00
2013-6-22,88.4,73.4,60.6,72.7,65.7,58.7,97,78,56,30.23,30.10,8,1,8,0.00
2013-6-23,86.4,78.4,71.8,72.3,69.3,68.5,92,74,59,30.12,30.04,5,0,5,0.00
2013-6-24,92.4,77.1,70.2,76.5,69.8,64.5,94,80,50,30.11,30.00,9,1,9,0.09
2013-6-25,93.2,79.3,68.5,77.6,70.7,65.3,95,77,53,30.02,29.87,7,1,7,0.00
2013-6-27,75.3,72.8,71.6,68.0,67.6,67.2,87,84,78,29.63,29.62,0,0,0,0.00
2013-6-28,88.3,75.4,67.8,74.7,67.9,62.6,94,78,58,29.62,29.46,12,1,12,0.04
2013-6-29,89.8,75.4,65.4,69.6,65.1,60.5,95,73,44,29.68,29.50,7,1,7,0.03
2013-6-30,88.8,75.8,66.2,76.5,70.4,65.0,97,84,64,29.83,29.67,8,1,8,0.07
2013-7-1,82.5,74.9,70.5,74.4,70.7,68.3,96,87,72,29.94,29.81,9,1,9,0.09
2013-7-2,83.0,75.8,72.5,74.7,71.7,69.7,92,87,74,30.14,29.93,12,3,12,0.00
2013-7-3,84.4,75.4,71.9,76.4,72.0,69.6,98,89,73,30.20,30.12,9,2,9,0.00
2013-7-4,89.6,79.5,72.3,77.2,73.3,71.1,96,82,63,30.22,30.13,12,2,12,0.00
2013-7-5,90.0,79.2,69.5,77.5,72.7,68.0,97,82,63,30.20,30.09,12,2,12,0.00
2013-7-6,93.0,80.3,69.3,77.3,72.4,67.8,98,78,57,30.17,30.03,9,2,9,0.00
2013-7-7,91.8,76.4,69.3,78.4,70.9,67.6,97,84,57,30.08,29.96,8,1,8,0.94
2013-7-8,88.3,75.8,69.0,74.0,69.5,67.3,97,82,54,30.10,30.01,6,1,6,0.01
2013-7-9,78.5,71.6,69.9,73.6,69.5,68.1,95,93,83,30.08,30.05,2,0,2,0.00
2013-8-5,82.2,69.9,63.1,65.4,60.9,55.6,96,76,41,30.07,29.99,1,0,8,0.00
2013-8-6,78.6,71.3,68.2,69.3,67.5,66.0,96,88,70,30.05,30.01,1,0,5,0.00
2013-8-7,85.4,75.8,69.5,73.9,71.5,68.3,97,87,68,30.04,29.96,2,0,10,0.00
2013-8-8,79.4,72.6,70.3,75.5,71.2,69.4,97,95,88,29.92,29.89,0,0,5,0.00
2013-8-9,84.8,77.8,68.0,77.9,72.1,66.8,96,83,69,30.04,29.84,2,0,5,0.00
2013-8-10,85.8,74.7,70.4,76.7,70.4,66.3,94,87,69,30.11,29.83,2,0,10,0.00
2013-8-11,87.5,78.4,67.9,70.0,63.3,-99.9,96,65,55,30.09,29.95,1,-34,3,0.00
2013-8-12,87.7,76.4,59.7,72.9,68.9,55.8,97,80,53,30.29,29.89,2,0,7,0.00
2013-8-13,85.9,75.4,68.4,72.7,69.3,60.0,96,83,59,29.89,29.72,2,0,8,0.12
2013-8-14,74.0,65.6,56.3,59.9,52.9,48.9,78,64,49,30.09,29.82,3,0,9,0.00
2013-8-15,77.2,64.5,54.3,56.9,53.1,49.8,89,69,41,30.19,30.08,7,1,7,0.00
2013-8-16,82.1,62.1,50.7,61.1,54.0,48.7,94,78,42,30.19,30.11,6,0,6,0.00
2013-8-17,79.5,66.8,53.1,63.3,58.3,51.3,97,76,53,30.26,30.19,8,1,8,0.00
2013-8-18,67.9,63.4,62.8,61.8,61.3,60.6,95,93,78,30.24,30.16,1,0,1,0.04
2013-8-19,76.8,67.6,62.7,69.1,64.4,61.3,97,90,76,30.18,30.05,7,1,7,0.00
2013-8-20,88.4,73.5,60.8,70.5,66.2,59.7,98,80,52,30.16,30.08,6,1,6,0.00
2013-8-21,90.9,75.6,65.1,75.7,69.1,63.6,97,82,53,30.18,30.04,9,1,9,0.01
2013-8-22,88.9,76.7,68.0,72.2,68.5,65.7,93,77,56,30.07,29.91,6,1,6,0.00
2013-8-23,74.1,69.3,60.9,67.8,65.5,59.2,96,88,77,30.11,29.92,6,0,6,0.03
2013-8-24,82.0,67.6,59.0,65.3,60.2,56.1,97,79,45,30.33,30.11,7,1,7,0.01
2013-8-25,83.7,67.9,55.5,66.9,60.1,53.8,98,79,48,30.40,30.24,6,1,6,0.00
2013-8-26,90.1,70.7,59.9,69.2,62.6,45.5,95,78,47,30.27,29.99,10,1,10,0.00
2013-8-27,90.0,78.9,70.6,75.4,69.4,63.5,81,73,61,29.99,29.86,7,1,7,0.00
2013-8-28,77.1,73.5,71.9,73.0,70.7,68.6,96,91,76,29.91,29.80,7,0,7,0.07
2013-8-29,84.5,74.6,67.7,72.4,70.0,65.6,96,86,64,30.00,29.83,6,1,6,0.00
2013-8-30,89.3,74.8,65.6,73.7,69.2,64.1,98,84,57,30.03,29.85,8,2,8,0.00
2013-8-31,92.0,78.8,69.2,75.3,71.3,67.4,95,79,53,29.87,29.76,8,1,8,0.00
2013-9-1,93.7,75.8,66.5,75.2,69.2,65.0,95,82,52,29.83,29.73,6,0,6,0.00
2013-9-2,92.5,79.2,71.2,74.6,71.3,68.8,93,78,51,29.80,29.69,10,1,10,0.00
2013-9-3,85.9,75.5,66.6,71.0,63.4,56.8,92,68,44,29.96,29.71,8,1,8,0.00
2013-9-4,86.8,68.9,56.5,61.3,56.7,53.3,90,68,36,30.08,29.96,6,1,6,0.00
2013-9-5,83.5,71.1,63.3,65.2,58.5,49.6,82,66,47,30.12,30.00,12,1,12,0.00
2013-9-6,77.5,63.7,52.7,54.5,50.3,46.9,86,63,37,30.25,30.12,6,1,6,0.00
2013-9-7,84.8,64.8,48.9,62.2,54.7,46.7,96,73,43,30.14,29.93,8,1,8,0.00
2013-9-8,86.0,73.5,59.9,68.8,63.2,56.9,91,71,55,30.04,29.86,6,1,6,0.00
2013-9-9,80.0,68.7,61.3,65.9,58.1,49.8,89,69,58,30.19,30.04,7,1,7,0.00
2013-9-10,95.4,77.8,65.2,75.2,69.6,63.3,96,78,50,30.15,30.05,8,1,8,0.00
2013-9-11,94.8,80.7,71.5,76.8,72.9,69.7,95,79,55,30.13,29.98,8,1,8,0.00
2013-9-12,93.1,75.5,68.7,75.9,70.0,65.8,95,84,51,29.98,29.72,8,1,8,0.15
2013-9-13,76.9,67.7,57.2,66.3,57.5,49.9,92,71,46,29.95,29.70,12,2,12,0.00
2013-9-14,69.0,57.7,48.3,49.9,46.7,44.7,89,68,45,30.16,29.95,8,1,8,0.00
2013-9-15,48.3,47.9,47.5,45.4,45.1,44.6,90,90,90,30.17,30.16,0,0,0,0.00
2013-9-16,68.6,63.8,54.9,58.4,56.3,52.3,92,77,66,30.23,30.11,9,0,9,0.00
2013-9-17,68.1,56.4,45.5,52.9,46.1,39.1,92,71,37,30.42,30.23,7,1,7,0.00
2013-9-18,73.8,55.1,40.1,52.3,46.0,38.0,95,75,42,30.34,30.17,8,1,8,0.00
2013-9-19,78.2,60.9,46.5,60.5,53.0,44.6,96,78,52,30.19,30.06,7,1,7,0.00
2013-9-20,81.6,65.9,52.8,65.2,58.9,51.1,97,80,55,30.08,29.93,9,1,9,0.00
2013-9-21,67.9,63.2,60.3,64.8,60.9,57.8,96,92,84,29.94,29.67,12,0,12,0.03
2013-9-22,71.1,62.7,55.3,59.6,55.4,48.7,96,78,53,29.96,29.72,6,1,6,0.00
2013-9-23,65.8,56.0,47.0,49.4,46.7,43.6,90,72,52,30.10,29.95,7,1,7,0.00
2013-9-24,74.2,55.5,43.4,54.4,47.6,41.3,93,77,45,30.12,29.94,5,1,5,0.00
2013-9-25,77.2,57.6,44.2,54.8,48.2,42.3,97,74,42,30.00,29.87,6,1,6,0.00
2013-9-26,76.0,59.6,48.9,55.6,50.1,43.9,93,74,36,30.07,29.93,6,1,6,0.00
2013-9-27,66.0,52.5,48.8,59.6,49.9,46.9,97,91,79,30.20,30.07,4,0,4,0.00
2013-9-28,65.4,55.5,45.9,56.4,50.6,44.3,97,85,66,30.29,30.17,1,0,5,0.00
2013-9-29,76.6,63.9,45.9,56.4,52.5,44.3,95,69,42,30.29,30.05,2,0,5,0.00
2013-9-30,69.6,60.3,53.5,60.2,56.0,52.1,95,86,72,30.07,30.05,0,0,0,0.00
2013-10-1,81.0,68.6,59.3,62.5,59.0,55.7,89,73,50,30.06,29.96,1,0,5,0.00
2013-10-2,85.2,69.1,58.1,64.4,60.6,56.4,96,77,46,30.11,29.99,2,0,3,0.00
2013-10-3,83.9,70.3,58.2,67.5,62.9,56.8,95,79,57,30.10,30.02,1,0,3,0.00
2013-10-4,86.9,74.7,65.2,68.7,65.6,62.8,92,75,53,30.07,30.00,1,0,9,0.00
2013-10-5,87.4,72.5,60.3,68.8,64.6,59.0,97,79,50,30.01,29.94,3,0,15,0.00
2013-10-6,89.0,81.0,56.2,66.8,64.7,50.5,90,59,48,30.04,29.88,3,1,12,0.00
2013-10-7,65.9,59.7,55.7,64.7,53.3,45.9,96,80,66,30.05,29.74,17,0,7,0.00
2013-10-8,68.5,56.3,46.8,50.9,47.3,44.1,93,73,52,30.29,30.05,7,1,7,0.00
2013-10-9,54.5,51.0,49.2,50.9,47.5,44.8,92,88,77,30.33,30.24,4,0,4,0.05
2013-10-10,55.0,53.3,51.6,53.9,51.3,47.9,96,93,85,30.24,30.02,4,1,4,0.10
2013-10-11,60.4,57.0,54.6,59.8,56.1,53.5,98,97,96,30.02,29.96,4,0,4,0.85
2013-10-12,63.7,60.3,57.7,60.9,59.1,56.0,98,96,88,30.17,29.99,7,1,7,0.54
2013-10-13,58.9,57.6,56.7,58.1,56.6,55.6,97,96,95,30.31,30.17,7,1,7,0.12
2013-10-14,70.8,58.5,52.5,58.0,54.1,50.8,96,86,62,30.34,30.22,4,1,4,0.00
2013-10-15,52.5,48.2,47.3,51.0,47.0,46.1,96,96,94,30.24,30.20,0,0,0,0.00
2013-10-16,47.4,47.4,47.4,46.3,46.3,46.3,96,96,96,30.22,30.22,0,0,0,0.00
2013-10-17,47.4,47.4,47.4,46.3,46.3,46.3,96,96,96,30.22,30.22,0,0,0,0.00
2013-10-18,47.4,47.4,47.4,46.3,46.3,46.3,96,96,96,30.22,30.22,0,0,0,0.00
2013-10-19,47.4,47.4,47.4,46.3,46.3,46.3,96,96,96,30.22,30.22,0,0,0,0.00
2013-10-20,51.2,46.7,40.0,46.3,44.9,37.6,96,94,69,30.22,30.05,0,0,0,0.00
2013-10-21,68.8,50.3,35.4,46.5,40.6,33.8,97,73,40,30.14,29.95,15,2,15,0.00
2013-10-22,61.2,50.5,44.1,52.1,46.0,41.3,96,85,61,29.95,29.82,6,0,6,0.00
2013-10-25,37.5,36.7,36.0,30.1,29.7,29.2,77,76,74,30.32,30.31,6,0,6,0.00
2013-10-26,57.1,43.9,29.8,35.7,30.7,26.5,91,62,38,30.31,29.93,15,1,15,0.00
2013-10-27,60.2,49.3,36.6,39.7,36.2,33.0,88,62,43,30.14,29.96,10,1,10,0.00
2013-10-28,64.5,45.7,32.9,43.4,37.3,30.8,96,75,44,30.29,30.14,5,0,5,0.00
2013-10-29,62.7,46.9,35.1,45.2,39.7,33.3,97,78,50,30.39,30.28,5,0,5,0.00
2013-10-30,68.0,54.2,44.4,55.4,49.0,41.8,95,83,62,30.32,30.13,5,0,5,0.00
2013-10-31,67.3,59.8,54.2,60.2,56.4,51.7,96,89,75,30.17,29.73,15,2,15,0.00
2013-11-1,76.4,63.7,51.2,63.0,55.2,47.2,92,76,39,29.73,29.55,17,3,17,0.00
2013-11-2,65.9,54.3,45.1,50.7,44.4,39.1,96,71,49,29.89,29.65,8,1,8,0.00
2013-11-3,55.4,48.5,38.9,40.0,33.7,24.3,78,58,32,30.45,29.88,12,2,12,0.24
2013-11-4,43.8,36.1,27.1,29.8,25.7,22.5,87,67,48,30.64,30.45,6,1,6,0.00
2013-11-5,52.9,43.7,30.6,43.5,36.2,27.2,92,76,60,30.63,30.45,6,0,6,0.00
2013-11-6,68.0,56.3,45.4,52.9,48.3,42.1,93,75,58,30.45,30.03,20,3,20,0.00
2013-11-7,57.9,52.2,41.8,54.4,44.2,25.1,92,75,48,30.07,29.86,16,3,16,0.01
2013-11-8,51.2,41.7,28.9,32.1,27.2,24.8,85,58,38,30.32,30.07,12,2,12,0.00
2013-11-9,54.5,40.6,26.2,31.7,28.5,23.7,93,65,40,30.34,30.03,16,3,16,0.00
2013-11-10,61.5,45.9,34.5,38.6,31.0,27.8,84,59,36,30.25,29.98,12,2,12,0.00
2013-11-11,57.1,47.8,39.8,32.9,30.5,28.1,67,52,37,30.28,29.99,12,3,12,0.00
2013-11-12,52.0,39.0,30.3,38.7,24.1,15.9,73,55,42,30.42,29.97,13,3,13,0.25
2013-11-13,43.3,33.7,26.7,23.0,19.8,17.7,71,57,39,30.50,30.38,10,1,10,0.00
2013-11-14,58.5,38.1,24.5,27.5,22.0,16.8,83,57,23,30.38,30.22,7,1,7,0.00
2013-11-15,62.6,41.9,25.5,40.8,28.1,21.8,88,63,26,30.28,30.17,4,0,4,0.01
2013-11-16,54.1,47.7,41.5,48.8,45.3,39.6,96,91,79,30.31,30.21,6,1,6,0.00
2013-11-17,60.3,54.5,49.8,58.5,53.4,48.7,98,96,93,30.22,29.70,17,3,17,0.01
2013-11-18,66.3,59.8,53.5,59.2,44.1,33.5,93,60,31,29.78,29.68,14,3,14,0.01
2013-11-19,45.9,40.8,36.1,28.8,26.8,25.0,65,57,49,30.38,30.13,9,2,9,0.00
2013-11-20,46.2,34.8,27.1,26.1,23.8,21.1,87,66,39,30.57,30.37,9,1,9,0.00
2013-11-21,28.0,25.8,24.7,26.0,22.8,21.9,92,89,85,30.56,30.55,0,0,0,0.00
2013-11-22,59.3,57.4,54.7,52.7,50.8,45.8,85,79,72,30.07,30.01,12,2,12,0.00
2013-11-23,54.5,41.8,29.4,45.7,28.2,13.0,77,59,43,30.22,30.05,10,3,10,0.00
2013-11-24,29.9,25.5,20.9,13.0,7.7,3.4,60,47,38,30.53,30.22,17,3,17,0.00
2013-11-25,36.1,27.5,18.0,14.9,10.6,7.6,69,50,33,30.57,30.33,12,2,12,0.00
2013-11-26,35.4,32.9,31.7,34.0,26.6,14.9,95,79,49,30.34,29.63,10,1,10,1.46
2013-11-27,38.3,34.9,26.9,35.8,29.7,15.5,95,82,62,30.06,29.53,14,3,14,0.15
2013-11-28,36.4,29.3,24.0,24.2,18.3,13.5,81,64,50,30.48,30.06,10,1,10,0.01
2013-11-29,39.5,29.4,21.5,25.5,21.3,18.1,89,73,51,30.73,30.46,8,1,8,0.00
2013-11-30,34.7,26.0,17.1,23.5,19.7,14.7,98,78,59,30.73,30.38,6,1,6,0.00
2013-12-1,43.3,31.7,18.3,31.5,25.1,16.1,94,78,58,30.38,30.02,4,0,4,0.00
2013-12-2,45.5,39.6,36.4,34.9,32.8,30.8,86,77,64,30.02,29.87,4,0,4,0.00
2013-12-3,55.1,40.4,32.4,40.3,34.5,29.8,94,81,57,29.99,29.88,5,0,5,0.00
2013-12-4,56.1,43.4,30.7,47.4,39.2,28.9,96,86,68,30.08,29.99,4,0,4,0.00
2013-12-5,50.4,50.4,50.4,47.3,47.3,47.3,89,89,89,30.05,30.05,0,0,0,0.00
2013-12-6,50.4,50.4,50.4,47.3,47.3,47.3,89,89,89,30.05,30.05,0,0,0,0.00
2013-12-7,50.4,50.4,50.4,47.3,47.3,47.3,89,89,89,30.05,30.05,0,0,0,0.00
2013-12-8,50.4,50.4,50.4,47.3,47.3,47.3,89,89,89,30.05,30.05,0,0,0,0.00
2013-12-9,50.4,50.4,50.4,47.3,47.3,47.3,89,89,89,30.05,30.05,0,0,0,0.00
2013-12-10,35.5,27.1,16.8,31.7,20.4,13.9,92,77,55,30.41,30.01,1,0,10,0.15
2013-12-11,36.5,28.3,20.0,23.3,19.8,16.9,90,72,51,30.32,30.26,10,0,8,0.11
2013-12-12,33.0,25.3,15.0,22.7,13.6,8.0,87,62,42,30.44,30.25,9,1,9,0.03
2013-12-13,39.8,25.9,12.7,23.7,16.4,8.9,88,70,42,30.32,30.22,9,0,9,0.13
2013-12-14,33.7,31.9,28.2,32.4,29.0,23.5,95,89,82,30.33,29.74,6,1,6,0.01
2013-12-15,43.1,35.5,30.4,36.2,29.4,22.8,95,79,63,29.94,29.64,12,2,12,0.41
2013-12-16,34.9,32.4,29.7,26.4,24.5,21.8,81,72,68,30.19,29.94,7,1,7,0.01
2013-12-17,37.3,33.0,30.7,32.3,28.9,25.6,91,85,81,30.15,29.93,7,1,7,0.00
2013-12-18,38.7,32.2,23.3,28.3,23.1,19.6,92,70,53,30.22,30.00,9,1,9,0.00
2013-12-19,54.9,34.9,21.4,35.0,26.7,18.8,92,74,44,30.20,30.08,9,1,9,0.00
2013-12-20,53.9,45.9,33.8,39.2,33.8,29.1,86,63,50,30.10,29.99,12,2,12,0.00
2013-12-21,66.8,57.5,46.1,58.7,48.2,38.4,82,71,59,30.00,29.87,14,4,14,0.00
2013-12-22,69.0,63.3,58.9,63.8,59.6,56.1,96,88,81,29.97,29.78,16,4,16,0.32
2013-12-23,59.4,50.9,35.5,57.2,46.3,25.3,97,84,66,30.23,29.88,10,2,10,0.57
2013-12-24,38.2,31.0,20.7,25.6,19.0,8.4,74,61,45,30.49,30.20,12,2,12,0.00
2013-12-25,30.3,24.0,18.7,15.6,12.1,9.0,77,61,48,30.59,30.37,7,1,7,0.00
2013-12-26,44.3,30.8,17.2,27.2,19.2,13.8,89,64,41,30.38,30.23,5,1,5,0.00
2013-12-27,50.2,35.9,23.7,24.2,20.8,17.8,84,57,28,30.42,30.30,10,1,10,0.00
2013-12-28,59.3,38.3,22.9,33.6,26.4,19.9,91,67,31,30.33,30.11,9,1,9,0.00
2013-12-29,46.7,42.0,36.3,44.4,38.6,29.8,96,88,67,30.11,29.56,6,1,6,1.03
2013-12-30,45.2,38.2,27.2,38.7,30.9,21.6,87,75,68,30.18,29.82,9,1,9,0.00
2013-12-31,43.9,32.2,26.7,29.3,21.7,17.3,84,66,47,30.32,30.11,12,2,12,0.00
2014-1-1,45.8,32.0,22.9,28.5,23.0,17.8,88,71,47,30.41,30.11,9,1,9,0.00
2014-1-2,33.8,30.0,26.7,30.0,27.3,24.2,94,90,84,30.11,29.63,5,0,5,0.00